Home   Weather   Puerto Williams   Past weeks

Flag for Chile Past Weather in Puerto Williams, Chile — Yesterday and Last 2 Weeks

46 °F

Scattered showers. Scattered clouds.

Feels Like: 38 °F
Forecast: N/A
Wind: 26 mph from West

Location: Ushuaia Aerodrome

Current Time: Oct 25, 2016 at 7:54:54 PM

Latest Report: Oct 25, 2016 at 7:00 PM

Visibility: N/A

Pressure: 29.65 "Hg

Humidity: 76%

Dew Point: 39 °F

Location of Puerto WilliamsLocation

Past Weather in Puerto Williams — Graph


Puerto Williams Temperature Yesterday

Maximum temperature yesterday: 59 °F (at 2:00 PM)
Minimum temperature yesterday: 39 °F (at 6:00 AM)
Average temperature yesterday: 49 °F

High & Low Weather Summary for the Past Weeks

High59 °F (Oct 24, 2:00 PM)100% (Oct 22, 4:00 AM)30.27 "Hg (Oct 22, 4:00 AM)
Low32 °F (Oct 14, 12:00 AM)30% (Oct 11, 4:00 PM)28.65 "Hg (Oct 12, 3:00 PM)
Average44 °F69%29.60 "Hg
* Reported Oct 10 6:00 PM — Oct 25 6:00 PM, Puerto Williams, Weather by CustomWeather, © 2016

Note: Actual official high and low records may vary slightly from our data, if they occured in-between our weather recording intervals... More about our weather records


Puerto Williams Weather History for the Previous 24 Hours

Scroll right to see more
Time TempWeatherWind HumidityBarometerVisibility
6:00 PM
Tue, Oct 25
48 °FScattered showers. Broken clouds.22 mph71%29.65 "HgN/A
5:00 PM48 °FLight rain. Scattered clouds.25 mph76%29.62 "HgN/A
4:00 PM50 °FScattered showers. Scattered clouds.25 mph76%29.59 "HgN/A
3:00 PM52 °FScattered showers. Broken clouds.26 mph58%29.56 "HgN/A
2:00 PM54 °FPartly sunny.18 mph58%29.59 "HgN/A
1:00 PM52 °FPartly sunny.17 mph62%29.59 "HgN/A
12:00 PM48 °FScattered showers. Scattered clouds.5 mph76%29.59 "HgN/A
11:00 AM52 °FPartly sunny.20 mph72%29.62 "HgN/A
10:00 AM50 °FScattered showers. Partly sunny.6 mph76%29.65 "HgN/A
9:00 AM48 °FBroken clouds.8 mph82%29.65 "HgN/A
8:00 AM50 °FBroken clouds.8 mph71%29.68 "HgN/A
7:00 AM46 °FScattered clouds.No wind93%29.68 "HgN/A
6:00 AM46 °FScattered clouds.No wind76%29.71 "HgN/A
5:00 AM46 °FPassing clouds.No wind76%29.71 "HgN/A
4:00 AM48 °FPassing clouds.No wind66%29.74 "HgN/A
3:00 AM48 °FPassing clouds.No wind66%29.74 "HgN/A
2:00 AM48 °FPassing clouds.No wind66%29.77 "HgN/A
1:00 AM48 °FPassing clouds.No wind71%29.80 "HgN/A
12:00 AM48 °FPassing clouds.5 mph71%29.83 "HgN/A
11:00 PM
Mon, Oct 24
50 °FPassing clouds.3 mph67%29.83 "HgN/A
10:06 PM52 °FPassing clouds.6 mph62%29.86 "HgN/A
9:00 PM52 °FPassing clouds.9 mph62%29.86 "HgN/A
8:00 PM54 °FPartly sunny.12 mph54%29.86 "HgN/A
7:00 PM54 °FPartly sunny.14 mph58%29.86 "HgN/A
Weather by CustomWeather, © 2016

See weather overviewHow to use our weather pages